Frederick, MD

3:32 PM EST on January 22, 2017 (GMT -0500)
Frederick Municipal

Weather History for KFDK - January, 2013

Change the Weather History Date:

Sunday, January 20, 2013

  Actual Average (KHGR) Record (KHGR)
Temperature  
Mean Temperature 42 °F -  
Max Temperature 55 °F 33 °F 61 °F (2006)
Min Temperature 30 °F 20 °F 11 °F (2009)
Degree Days  
Heating Degree Days 22    
Moisture  
Dew Point 25 °F    
Average Humidity 66    
Maximum Humidity 93    
Minimum Humidity 24    
Precipitation  
Precipitation 0.00 in - - ()
Sea Level Pressure  
Sea Level Pressure 29.96 in    
Wind  
Wind Speed 8 mph (SW)    
Max Wind Speed 25 mph    
Max Gust Speed 31 mph    
Visibility 10 miles    
Events      
Averages and records for this station are not official NWS values.
T = Trace of Precipitation, MM = Missing Value Source: NWS Daily Summary

Daily Weather History Graph

Daily Weather History Graph

Search for Another Location

Airport or City:

Trip Planner

Search our weather history database for the weather conditions in past years. The results will help you decide how hot, cold, wet, or windy it might be!

Date:

Astronomy

Jan. 20, 2013 Rise Set
Actual Time 7:25 AM EST 5:16 PM EST
Civil Twilight 6:56 AM EST 5:45 PM EST
Nautical Twilight 6:23 AM EST 6:18 PM EST
Astronomical Twilight 5:51 AM EST 6:50 PM EST
Moon 12:15 PM EST (1/20) 1:56 AM EST (1/20)
Length of Visible Light 10h 48m
Length of Day
9h 50m
Waxing Gibbous, 66% of the Moon is Illuminated
Jan 20
Waxing Gibbous
Jan 26
Full
Feb 3
Last Quarter
Feb 10
New
Feb 17
First Quarter

Hourly Weather History & Observations

Time (EST) Temp. Windchill Dew Point Humidity Pressure Visibility Wind Dir Wind Speed Gust Speed Precip Events Conditions
12:05 AM 37.4 °F 30.8 °F 32.0 °F 81% 29.96 in 10.0 mi SSW 9.2 mph - N/A   Clear
12:25 AM 37.4 °F 30.8 °F 30.2 °F 75% 29.95 in 10.0 mi SSW 9.2 mph - N/A   Clear
12:45 AM 37.4 °F 30.8 °F 30.2 °F 75% 29.94 in 10.0 mi SSW 9.2 mph - N/A   Clear
1:05 AM 37.4 °F 30.3 °F 30.2 °F 75% 29.93 in 10.0 mi SSW 10.4 mph - N/A   Clear
1:30 AM 35.6 °F 30.7 °F 30.2 °F 81% 29.93 in 10.0 mi SSW 5.8 mph - N/A   Clear
1:50 AM 35.6 °F 29.2 °F 30.2 °F 81% 29.93 in 10.0 mi SW 8.1 mph - N/A   Clear
2:10 AM 35.6 °F 29.2 °F 30.2 °F 81% 29.93 in 10.0 mi SSW 8.1 mph - N/A   Clear
2:30 AM 33.8 °F 29.6 °F 30.2 °F 87% 29.92 in 10.0 mi South 4.6 mph - N/A   Clear
2:35 AM 33.8 °F 30.8 °F 30.2 °F 87% 29.92 in 10.0 mi South 3.5 mph - N/A   Clear
2:55 AM 32.0 °F 27.5 °F 30.2 °F 93% 29.92 in 10.0 mi SSW 4.6 mph - N/A   Clear
3:15 AM 32.0 °F 27.5 °F 30.2 °F 93% 29.91 in 10.0 mi South 4.6 mph - N/A   Clear
3:35 AM 32.0 °F 28.7 °F 28.4 °F 87% 29.90 in 10.0 mi SSW 3.5 mph - N/A   Clear
4:00 AM 32.0 °F 26.4 °F 30.2 °F 93% 29.89 in 10.0 mi SSW 5.8 mph - N/A   Clear
4:20 AM 33.8 °F 26.4 °F 30.2 °F 87% 29.87 in 10.0 mi South 9.2 mph - N/A   Clear
4:40 AM 33.8 °F 27.0 °F 30.2 °F 87% 29.87 in 10.0 mi SSW 8.1 mph - N/A   Clear
5:00 AM 33.8 °F 27.7 °F 30.2 °F 87% 29.86 in 10.0 mi South 6.9 mph - N/A   Clear
5:25 AM 33.8 °F 29.6 °F 30.2 °F 87% 29.86 in 10.0 mi South 4.6 mph - N/A   Clear
5:45 AM 33.8 °F 27.0 °F 30.2 °F 87% 29.86 in 10.0 mi South 8.1 mph - N/A   Clear
5:50 AM 33.8 °F 27.0 °F 30.2 °F 87% 29.85 in 10.0 mi South 8.1 mph - N/A   Clear
6:51 AM 33.8 °F 27.7 °F 28.4 °F 81% 29.85 in 10.0 mi SSW 6.9 mph - N/A   Clear
7:45 AM 30.2 °F 25.4 °F 28.4 °F 93% 29.86 in 10.0 mi SW 4.6 mph - N/A   Clear
8:45 AM 39.2 °F 33.0 °F 30.2 °F 70% 29.88 in 10.0 mi SSW 9.2 mph - N/A   Clear
9:45 AM 44.6 °F 39.7 °F 32.0 °F 61% 29.87 in 10.0 mi SSW 9.2 mph - N/A   Clear
10:48 AM 53.6 °F - 32.0 °F 44% 29.88 in 10.0 mi West 25.3 mph 29.9 mph N/A   Clear
11:50 AM 55.4 °F - 30.2 °F 38% 29.87 in 10.0 mi WNW 23.0 mph 31.1 mph N/A   Partly Cloudy
12:52 PM 55.4 °F - 28.4 °F 36% 29.87 in 10.0 mi West 24.2 mph 29.9 mph N/A   Clear
1:49 PM 55.4 °F - 30.2 °F 38% 29.88 in 10.0 mi West 20.7 mph 29.9 mph N/A   Clear
2:45 PM 53.6 °F - 21.2 °F 28% 29.91 in 10.0 mi NW 20.7 mph 27.6 mph N/A   Clear
3:45 PM 51.8 °F - 15.8 °F 24% 29.95 in 10.0 mi WNW 16.1 mph 29.9 mph N/A   Clear
4:50 PM 46.4 °F 39.0 °F 14.0 °F 27% 29.99 in 10.0 mi WNW 19.6 mph 23.0 mph N/A   Clear
5:50 PM 42.8 °F 37.0 °F 14.0 °F 31% 30.02 in 10.0 mi NW 10.4 mph 16.1 mph N/A   Clear
6:52 PM 37.4 °F 32.1 °F 15.8 °F 41% 30.05 in 10.0 mi NNW 6.9 mph - N/A   Clear
7:45 PM 35.6 °F - 15.8 °F 44% 30.07 in 10.0 mi Calm Calm - N/A   Clear
7:55 PM 33.8 °F - 17.6 °F 52% 30.08 in 10.0 mi Calm Calm - N/A   Clear
8:15 PM 32.0 °F 27.5 °F 17.6 °F 55% 30.08 in 10.0 mi NE 4.6 mph - N/A   Clear
8:40 PM 32.0 °F 28.7 °F 17.6 °F 55% 30.08 in 10.0 mi ENE 3.5 mph - N/A   Clear
9:00 PM 32.0 °F 27.5 °F 17.6 °F 55% 30.08 in 10.0 mi NNE 4.6 mph - N/A   Clear
9:20 PM 32.0 °F 26.4 °F 17.6 °F 55% 30.09 in 10.0 mi North 5.8 mph - N/A   Clear
9:45 PM 30.2 °F - 17.6 °F 60% 30.10 in 10.0 mi Calm Calm - N/A   Clear
10:05 PM 30.2 °F - 17.6 °F 60% 30.10 in 10.0 mi Calm Calm - N/A   Clear
10:25 PM 30.2 °F - 19.4 °F 64% 30.10 in 10.0 mi Calm Calm - N/A   Clear
10:45 PM 30.2 °F 25.4 °F 19.4 °F 64% 30.10 in 10.0 mi ENE 4.6 mph - N/A   Clear
11:10 PM 30.2 °F - 19.4 °F 64% 30.11 in 10.0 mi Calm Calm - N/A   Clear
11:30 PM 32.0 °F - 17.6 °F 55% 30.12 in 10.0 mi Calm Calm - N/A   Clear
11:50 PM 32.0 °F 25.6 °F 17.6 °F 55% 30.12 in 10.0 mi North 6.9 mph - N/A   Clear